LEMUR-2-DUNLOP

Last updated on Wed Feb 14 2018 16:20:55 GMT+0000 (Coordinated Universal Time)

1 43053U 17071S 18045.08221952 .00003364 00000-0 98135-4 0 9994 2 43053 51.6393 280.7947 0000857 8.0122 352.0875 15.38240002 10628

Satellite not in orbit

LEMUR-2-DUNLOP